STARLINK-35195, 65606

Orbit data source: Space-Track

STARLINK-35195, 65606 is a payload satellite owned by SpaceX/Seattle (US) in SSO that was launched on Sat, 13 Sep 2025 UTC via an FALCON 9 launch vehicle from the Air Force Eastern Test Range (AFETR). Payload-class satellites include a variety of spacecraft equipped with specific instruments for various scientific and technological missions. These include communications satellites like Starlink; space stations such as the ISS; scientific satellites like the Hubble; Earth observation satellites from companies like Planet Labs, Umbra, and HawkEye 360; GPS; miniature CubeSats for education and research; and military/defense satellites.

Loading next visibility...
Identifier
65606, 2025-207Q
Orbit
SSO
Country
Flag of USUS
Related business
Manufacturer
SpaceX/Seattle
Mission
Operational Commercial Communications
Bus & Motor
STARLINK V2MO, Unknown motor
Mass
575 kg wet, ~530 kg dry
Launch date (UTC)
2025-09-13 (9 months ago)
Launch vehicle
FALCON 9
Launch site
Air Force Eastern Test Range (AFETR)
Object type
Payload
Rocket body
Debris
Shape & HBR
Box + 2 Pan, 17.7 m
Radar Cross Section
36.964 m², Large (>1 m²)

Expand to show TLE details & history
Last TLE update: 10 hours ago

TLE from 10 hours ago
0 STARLINK-35195
1 65606U 25207Q   26166.76258789  .00015416  00000-0  10687-2 0  9993
2 65606  97.3528 234.4788 0002045  67.8448 292.2996 15.05699611 43024
Epoch: 2026-06-15T18:18Z
TLE epoch observation values (Epoch: 2026-06-15T18:18:07.593Z)
Latitude
-0.00008°
Longitude
55.90285°
Altitude
551.894 km
Speed
7.586 km/s
True Right ascension
15h 37m 54s
True Declination
0° 00' 00"
Sunlit
Object was in full shadow at epoch
Visualization orbit readout
Latitude
Unknown
Longitude
Unknown
Altitude
Unknown
Speed
Unknown
Apparent Right ascension
Unknown
Apparent Declination
Unknown
Sunlit
N/A
Visualization observer readout
Local Sidereal Time
14:44:14
Azimuth
Unknown
Elevation
Unknown
Doppler factor
Unknown
Orbital elements
Apogee altitude
547.758 km
Perigee altitude
544.926 km
Semi-major axis
6,924.479 km
Eccentricity
0.0002
Inclination
97.3528°
RAAN
234.4788°
Arg. of periapsis
67.8448°
True anomaly
292.27792°
Mean anomaly
292.2996°
Eccentric anomaly
292.28876°
Mean motion
3.76671 °/min
Orbital period
95.57 mins
BSTAR
0.0010687
Loading maneuver chart data...
Computing Atmospheric mass density...
Loading historical data...
Loading historical data...
Loading historical data...
Loading historical data...
Loading historical data...
Loading historical data...
Loading historical data...

Documentation

Showing up to 5 results
|